Content
SEND FEEDBACK

Daily
Averages
Monthly
Summary
United States of America

CHICAGO, ILLINOIS


Home > North America > United States > Illinois
Elevation: 205 meters     Latitude: 41 59N     Longitude: 087 54W

WEATHER
 
SELECT A DAY
Number of Records: 197,256;   Date Range: 7/8/95 - 9/30/14
 
SHARE

PRINT THIS DATA

[ ← Previous Day ]
WEATHER ALMANAC - 16 JULY, 2013
[ Next Day → ]
[ °F ]   °C
Weather ElementAverageHighLow
Temperature29.4 °C33.9 °C (1:52 pm)23.9 °C (4:52 am)
Dewpoint21.9 °C22.8 °C (8:52 am)21.1 °C (2:52 pm)
Humidity65.1 %87 % (1:52 am)48 % (2:52 pm)
Barometer1025.1 hPa1026.4 hPa (7:52 am)1024 hPa (5:52 pm)
Wind Speed7.4 km/h14.8 km/h (2:52 pm)
Weather ElementAverage
Visibility15.6 km
Wind DirectionSSE (150.4 °)

Weather ElementTotal
Precipitation---
Cooling Degree Days10.6 (Base 18.3)
Growing Degree Days18.9 (Base 10)
Averaged from 23 records on 16 July, 2013
WEATHER CONDITIONS BREAKOUT
WIND DIRECTION BREAKOUT
WEATHER BY HOUR - 16 JULY, 2013
[ °F ]   °C
Local TimeTemperatureDewpointHumidityBarometerVisibilityWind DirectionWind SpeedGust SpeedPrecipitationEventsConditions
1:52 AM24.4 °C22.2 °C87 %1024.7 hPa16.1 kmCalmClear
2:52 AM24.4 °C21.7 °C85 %1025.1 hPa16.1 kmCalmClear
3:52 AM24.4 °C21.7 °C85 %1025.1 hPa14.5 kmSSE (160°)5.6 km/hClear
4:52 AM23.9 °C21.7 °C87 %1025.1 hPa14.5 kmCalmClear
5:52 AM23.9 °C21.7 °C87 %1025.7 hPa12.9 kmCalmClear
6:52 AM25.6 °C22.2 °C81 %1026.1 hPa14.5 kmSouth (190°)7.4 km/hScattered Clouds
7:52 AM26.7 °C22.2 °C76 %1026.4 hPa16.1 kmSW (220°)9.3 km/hOvercast
8:52 AM28.9 °C22.8 °C69 %1026.4 hPa16.1 kmVariable11.1 km/hScattered Clouds
9:52 AM30 °C22.8 °C65 %1026.1 hPa16.1 kmVariable9.3 km/hPartly Cloudy
10:52 AM31.1 °C22.2 °C59 %1026.1 hPa16.1 kmWest (270°)13 km/hMostly Cloudy
11:52 AM31.1 °C21.7 °C57 %1025.7 hPa16.1 kmWest (270°)9.3 km/hOvercast
12:52 PM32.8 °C22.2 °C53 %1025.4 hPa16.1 kmSouth (190°)9.3 km/hPartly Cloudy
1:52 PM33.9 °C21.7 °C49 %1025.1 hPa12.9 kmWSW (240°)11.1 km/hPartly Cloudy
2:52 PM33.3 °C21.1 °C48 %1024.7 hPa16.1 kmWest (260°)14.8 km/hScattered Clouds
3:52 PM32.8 °C21.7 °C52 %1024.4 hPa16.1 kmWSW (250°)13 km/hScattered Clouds
4:52 PM33.3 °C21.1 °C48 %1024.4 hPa16.1 kmSW (230°)9.3 km/hMostly Cloudy
5:52 PM33.3 °C21.1 °C48 %1024 hPa16.1 kmSW (230°)11.1 km/hPartly Cloudy
6:52 PM32.8 °C21.7 °C52 %1024 hPa16.1 kmSW (230°)11.1 km/hScattered Clouds
7:52 PM32.2 °C21.7 °C54 %1024.4 hPa16.1 kmWest (260°)9.3 km/hPartly Cloudy
8:52 PM31.1 °C21.7 °C57 %1024.7 hPa16.1 kmWSW (250°)7.4 km/hClear
9:52 PM30 °C22.2 °C63 %1025.1 hPa16.1 kmCalmClear
10:52 PM28.9 °C22.2 °C67 %1025.1 hPa16.1 kmSSW (210°)7.4 km/hClear
11:52 PM28.3 °C22.2 °C69 %1025.4 hPa16.1 kmCalmClear
Hourly data recorded from KPWK, located 0 kilometers away from Chicago, Illinois







STORIES FROM OUR PARTNERS